Wind_Speed
13 13 14 16 21 24 24 23 22 21 20 20 21 23 23 24 24 23 22 20 18 17 16 15 15 15 16 17 18 19 21 22 23 24 25 27 28 29 30 31 32 34 34 35 36 37 38 38 39 41 40 38 38 37 37 37 36 35 33 31 30 28 26 21 11 6 8 16 23 25 27 30 31 32 33 32 32 31 29 29 27 24 21 18 18
13 14 14 14 16 19 22 24 24 24 23 22 22 23 22 23 23 24 23 23 22 20 18 17 16 16 16 17 18 19 20 21 22 23 25 27 28 29 30 30 31 33 34 35 36 35 36 38 39 39 38 38 39 38 37 37 36 36 35 33 32 31 29 26 16 9 10 14 20 23 25 28 30 32 34 34 34 32 30 29 28 26 23 20 19
12 13 14 14 14 14 17 21 24 26 27 26 25 23 22 22 22 22 22 23 23 23 22 20 19 17 17 17 18 19 19 20 21 22 24 26 27 28 29 30 32 32 33 34 35 35 35 38 40 39 36 37 40 39 38 39 38 38 37 35 34 33 32 31 23 14 14 16 20 23 25 27 29 30 32 33 33 31 29 28 28 27 25 22 20
12 13 13 14 13 13 15 18 20 23 24 26 26 26 24 22 21 21 21 22 23 23 23 23 21 20 19 18 18 19 19 20 21 22 24 25 27 28 28 30 32 33 34 34 34 35 35 37 40 38 35 37 40 41 40 40 39 38 37 37 37 34 32 32 30 21 17 18 20 23 26 26 25 27 29 30 29 29 28 27 26 25 24 22 21
12 12 13 14 13 14 14 15 16 18 19 21 23 26 26 25 25 24 22 22 22 22 22 22 21 21 21 20 20 20 20 20 21 22 23 25 26 28 28 29 30 32 34 35 35 35 36 38 39 37 36 39 41 41 41 42 40 39 38 38 37 35 32 32 33 26 20 20 21 21 23 23 21 23 27 29 27 26 25 24 23 22 22 22 22
13 13 14 14 14 15 15 15 15 15 17 20 22 24 25 27 29 28 26 25 22 21 21 21 20 20 21 21 21 21 21 21 21 23 24 25 26 28 29 30 31 31 33 34 35 36 37 40 40 37 38 42 43 42 41 42 41 40 40 40 38 36 33 32 33 28 22 22 24 22 22 24 22 21 26 30 29 27 24 22 22 21 20 20 21
13 13 14 14 14 15 16 16 16 18 19 21 23 24 24 26 28 28 28 28 26 23 22 20 20 20 20 20 21 21 22 22 22 23 24 25 27 28 30 31 32 33 34 34 34 35 37 40 39 38 40 44 45 43 40 39 40 41 43 42 39 37 34 31 31 30 24 21 23 23 23 24 23 21 23 26 25 24 24 23 20 20 20 21 22
14 13 13 13 13 14 15 16 17 20 24 26 27 28 28 30 30 28 27 28 27 27 26 23 22 21 20 20 20 20 20 22 23 23 24 25 26 27 29 30 32 34 35 36 36 36 37 39 39 39 41 44 44 43 41 40 39 41 43 41 38 37 36 32 31 30 27 23 23 24 23 24 23 21 22 23 21 21 24 24 21 20 21 22 22
19 16 15 14 13 14 16 16 15 19 26 29 30 31 32 33 32 29 30 30 28 29 28 26 25 24 22 21 20 19 19 20 22 23 24 26 27 28 28 28 30 32 34 35 36 37 38 39 40 40 41 43 44 44 43 43 42 42 42 40 39 39 37 35 33 32 28 23 22 23 22 22 24 24 24 27 27 25 24 22 20 19 20 20 20
21 19 18 17 17 17 19 18 17 21 26 28 30 32 33 33 30 28 31 33 30 29 27 27 27 26 25 24 22 21 20 20 20 21 22 24 27 30 31 30 30 31 32 33 34 35 37 38 40 41 42 43 45 46 45 45 46 46 44 40 41 42 39 36 35 34 31 26 24 25 22 21 25 29 30 31 30 26 25 24 21 18 17 15 15
20 20 22 23 23 25 25 23 23 28 31 30 30 32 33 32 29 28 30 31 31 29 28 28 28 26 25 24 24 23 22 21 21 21 22 22 24 27 31 33 32 32 32 33 34 34 35 35 38 40 42 44 46 46 46 46 47 48 47 43 43 44 42 39 36 35 33 29 28 29 25 24 28 31 31 30 29 27 27 28 25 21 19 15 12
17 19 22 25 28 30 30 27 27 31 34 34 33 34 34 31 29 29 29 30 31 31 30 29 28 28 27 26 25 24 25 24 23 23 23 22 22 24 28 31 32 33 33 33 34 34 33 34 35 36 39 42 43 43 45 47 48 49 48 45 45 46 47 45 42 38 37 33 30 31 31 29 29 32 33 32 31 30 28 29 29 25 23 20 16
15 17 19 22 26 28 27 26 27 30 33 35 35 36 37 35 33 31 30 31 32 32 31 30 29 30 28 27 27 27 27 28 27 26 26 25 24 24 26 29 31 33 35 35 35 34 34 34 34 35 36 37 39 40 42 44 45 46 47 46 46 47 48 49 47 44 44 41 36 36 38 35 33 36 40 38 36 33 29 28 29 28 25 24 20
16 19 21 22 22 23 24 25 27 28 31 33 34 35 35 36 36 34 32 33 34 33 34 34 32 31 29 28 29 30 29 31 32 31 29 28 26 24 26 29 31 33 35 36 36 36 36 35 35 36 35 34 36 39 40 40 39 40 41 43 45 47 47 48 48 46 45 44 43 42 42 42 41 41 42 42 40 39 36 34 33 31 27 23 19
19 20 23 25 24 24 25 26 26 28 30 31 32 34 34 35 36 34 31 32 33 34 35 35 35 34 33 31 32 33 33 34 37 37 33 30 28 25 25 28 30 32 35 36 37 38 37 36 37 38 36 34 36 39 39 37 35 35 38 41 44 45 46 49 51 49 45 44 44 42 40 42 43 39 38 40 40 39 38 36 33 30 25 21 18
23 22 24 26 26 25 25 26 27 27 29 29 31 33 35 36 36 33 30 30 31 33 35 34 34 36 36 34 33 35 36 36 35 36 34 32 30 27 26 28 29 31 33 35 36 38 38 38 38 39 38 37 38 40 40 38 34 34 37 40 41 41 44 48 51 51 49 46 44 40 38 39 40 37 37 39 38 35 31 28 27 27 24 19 17
23 23 25 25 25 26 25 26 28 28 28 29 31 33 35 36 37 35 33 32 32 33 34 34 34 35 36 36 35 35 38 37 34 33 35 34 31 29 28 28 28 31 33 33 34 35 37 39 39 39 39 39 39 39 39 38 36 36 37 38 37 37 41 45 45 47 49 48 44 40 37 37 38 37 37 38 39 37 34 30 28 30 26 17 13
21 23 24 24 24 25 25 26 28 29 30 31 32 33 34 34 36 36 34 33 34 33 32 34 37 36 35 37 37 36 39 41 38 34 36 37 34 30 29 28 28 30 32 32 33 34 36 38 40 40 41 41 39 38 38 39 38 37 37 36 34 35 40 40 37 37 39 40 39 38 35 34 35 35 36 37 39 40 39 37 35 34 29 19 14
21 22 24 24 23 24 26 28 29 30 32 33 34 35 35 35 35 36 34 32 33 32 29 31 38 39 38 39 39 37 39 43 42 37 36 37 36 32 29 27 27 29 31 31 31 33 35 36 37 40 42 42 40 37 38 39 39 38 38 34 32 38 43 39 33 32 32 32 33 34 33 32 31 32 34 36 39 41 41 39 39 38 32 24 20
22 23 25 25 26 27 28 30 32 33 34 35 35 36 36 35 34 34 32 31 33 33 31 32 37 41 41 41 41 41 41 44 46 43 38 36 36 34 30 28 28 29 30 30 30 31 33 34 34 37 39 41 41 40 38 39 40 39 38 35 36 43 43 35 33 35 34 32 33 35 34 33 32 33 34 35 37 39 39 37 39 40 35 28 26
24 25 26 28 30 31 31 32 33 35 36 36 37 37 36 35 34 34 34 33 35 36 36 36 37 39 42 44 45 46 46 46 49 49 43 38 37 37 34 31 31 31 30 29 30 30 31 32 32 34 35 37 41 41 40 40 42 41 40 42 44 45 41 36 37 39 37 35 35 35 36 36 35 35 36 36 36 37 38 37 36 38 36 31 29
26 27 28 30 32 33 34 35 35 35 36 37 37 38 38 37 37 37 36 36 38 38 39 39 37 36 39 43 45 48 48 48 49 51 48 43 40 39 38 37 36 35 31 30 30 31 32 32 32 33 33 35 38 39 38 39 41 42 44 46 45 43 42 40 39 38 38 37 36 35 35 36 36 36 35 35 35 34 35 35 34 34 34 32 31
27 28 30 32 34 35 35 35 34 34 35 36 36 38 39 39 39 38 37 37 37 38 39 38 36 34 35 37 39 44 47 47 46 49 50 48 44 42 42 42 42 39 34 32 33 33 34 34 33 33 32 34 36 37 36 37 39 42 44 45 43 42 43 40 37 37 37 37 35 34 35 36 36 36 35 35 34 33 32 32 32 32 32 29 27
28 29 30 32 34 35 35 35 35 34 34 35 35 37 39 39 38 37 36 36 35 35 35 34 31 32 33 33 34 39 42 43 44 45 47 48 46 43 43 45 45 41 38 36 36 35 35 36 35 34 33 33 35 37 37 38 39 41 41 39 38 39 40 39 37 36 34 34 34 34 35 35 35 35 36 36 34 33 32 32 31 30 30 27 24
30 30 32 33 33 34 35 36 35 35 34 33 33 35 35 35 34 32 31 32 32 32 32 31 29 29 30 30 31 34 36 38 39 40 42 43 43 41 42 43 43 41 38 38 38 39 39 38 36 34 33 33 34 35 36 38 40 40 39 37 36 37 38 38 37 35 33 33 33 32 32 33 34 34 35 35 34 33 33 31 29 28 27 25 23
31 32 33 34 33 34 35 34 33 32 32 30 30 31 32 32 31 30 29 29 30 30 30 30 29 28 28 29 30 31 32 34 35 36 38 39 40 40 40 39 39 39 39 39 41 41 40 37 35 33 32 32 33 34 35 36 37 38 40 40 38 37 37 38 37 35 34 34 32 30 31 33 34 34 35 35 35 35 35 33 30 28 26 25 23
30 32 32 32 31 31 30 30 31 31 30 28 28 29 30 29 30 30 28 28 28 29 29 29 28 27 27 28 28 30 32 32 32 33 35 35 36 37 37 36 36 36 36 37 39 39 37 36 35 33 33 33 34 35 35 34 33 35 37 39 38 37 36 38 38 37 36 35 33 31 32 34 35 35 37 36 35 35 35 34 31 28 27 26 24
28 31 32 30 29 28 28 29 30 30 29 29 28 29 29 29 30 29 29 29 29 29 29 29 29 28 28 28 28 29 31 33 33 33 34 33 31 30 29 30 30 31 32 33 35 34 32 31 31 30 30 30 31 31 32 31 30 31 33 34 35 35 34 36 39 38 36 35 33 31 32 35 36 37 37 35 33 33 34 32 30 29 28 26 23
28 30 29 27 27 27 27 29 29 29 30 30 30 31 30 30 32 33 32 32 32 33 34 33 32 31 30 30 29 28 28 30 31 31 32 33 32 30 28 27 26 26 28 30 30 28 25 24 26 26 26 26 26 26 27 27 27 28 30 31 32 32 32 34 36 36 33 32 31 30 32 33 33 34 34 32 31 32 33 32 30 29 28 26 23
27 27 26 26 27 27 28 28 29 29 31 31 31 32 31 31 32 35 35 35 35 37 39 39 38 37 35 35 34 34 35 37 36 36 35 36 35 34 33 31 29 27 27 27 26 23 21 22 25 25 24 23 23 23 24 25 25 25 27 29 29 29 31 33 35 34 32 31 30 30 31 31 30 31 31 29 27 29 31 31 31 31 30 27 23
26 26 26 27 28 28 28 29 29 29 30 30 30 31 32 31 31 32 35 37 37 38 40 42 42 41 41 41 40 41 44 45 44 43 42 40 39 39 38 38 35 32 29 26 23 21 20 18 19 22 24 23 23 24 24 24 25 24 24 25 27 28 30 31 33 33 32 31 30 31 31 32 31 31 31 29 28 29 29 30 31 31 30 28 26
27 29 29 29 30 29 29 29 29 29 29 29 29 29 30 30 28 29 31 33 35 37 38 40 41 41 42 44 43 42 42 43 44 44 43 41 40 40 39 40 39 37 34 29 23 20 20 16 15 20 23 23 23 25 24 23 24 25 24 23 23 26 28 29 31 33 33 32 31 32 32 33 34 33 33 32 31 29 29 30 31 31 28 26 24
29 30 31 30 29 29 28 28 29 28 28 28 28 28 27 27 26 26 28 30 32 34 35 37 39 39 40 42 42 42 42 43 43 44 43 42 41 40 38 38 37 36 36 31 23 20 21 19 18 21 23 22 22 23 23 23 24 25 25 23 23 23 25 28 31 33 34 33 33 33 33 33 34 33 33 33 32 30 31 31 30 30 27 24 21
30 29 31 31 30 29 29 28 28 28 27 27 28 27 27 27 26 26 27 26 26 28 30 32 34 35 36 37 38 39 40 39 38 39 39 40 40 40 40 39 37 35 35 32 25 21 20 19 19 21 23 22 22 22 22 22 23 24 24 23 23 23 25 28 30 32 32 32 32 32 31 32 32 32 31 30 29 29 31 31 29 28 27 24 22
28 27 28 29 29 28 28 27 27 27 27 27 27 27 28 28 27 26 26 24 23 24 27 29 30 32 33 34 35 36 37 36 36 36 35 35 36 36 36 35 32 30 30 30 26 23 20 19 19 21 22 22 22 22 22 22 22 23 23 22 23 25 26 28 30 31 32 32 31 31 31 31 32 33 31 30 30 31 31 31 30 28 25 23 21
25 24 25 26 26 26 27 27 27 27 27 27 27 28 28 28 27 27 27 26 25 26 27 28 30 32 34 34 34 34 35 34 34 34 34 36 37 34 30 28 25 23 23 25 25 22 20 20 20 22 22 22 22 22 23 22 22 24 25 26 27 27 28 30 31 31 32 32 31 31 31 31 31 32 32 32 33 32 31 30 29 27 24 22 21
24 23 24 25 25 26 27 27 27 28 28 27 27 27 28 27 27 27 26 25 26 26 27 27 28 29 31 32 30 29 30 32 32 33 35 37 37 32 28 26 24 23 21 22 22 21 19 18 19 21 22 22 22 21 22 22 23 25 26 27 28 30 31 32 33 34 33 31 30 31 31 31 32 34 35 34 33 31 29 28 28 26 24 23 21
25 25 25 26 27 27 28 28 28 28 28 27 26 26 26 26 26 26 25 25 25 25 25 26 25 24 26 29 29 27 27 29 29 29 28 26 24 22 23 24 25 24 22 20 21 19 17 16 18 21 23 23 22 22 22 23 24 25 26 26 27 28 28 29 30 31 31 29 29 30 30 31 33 36 37 36 33 30 28 28 26 23 22 20 19
25 26 27 28 28 27 27 27 27 27 27 26 25 25 25 25 24 24 24 23 23 23 23 23 23 24 25 28 29 27 25 23 23 23 22 21 20 18 18 20 23 23 20 18 18 17 15 15 18 21 22 23 23 24 24 24 25 26 27 28 27 27 26 26 27 28 28 28 29 30 31 32 35 37 36 34 31 29 28 27 24 22 21 18 16
24 26 27 27 26 26 26 26 26 26 25 25 24 24 23 23 23 23 23 22 21 22 22 22 22 25 26 28 28 26 22 20 20 20 21 20 18 20 22 20 18 18 16 14 14 13 13 15 18 20 22 23 24 25 26 26 26 27 28 29 29 28 27 28 29 29 29 29 30 31 33 35 36 35 33 31 29 28 28 26 23 21 20 17 15
24 25 26 26 25 25 26 25 25 25 25 25 24 23 23 23 22 22 22 21 20 21 22 21 23 27 28 28 29 29 26 23 21 20 20 19 17 19 21 16 9 12 12 11 11 10 11 15 19 20 22 24 25 27 27 27 28 29 28 28 27 27 27 27 28 29 30 30 31 34 37 38 38 35 32 28 26 27 27 25 22 20 18 16 15
23 24 24 25 25 24 24 25 26 26 26 25 24 22 22 22 22 21 20 20 20 20 21 21 24 26 27 29 31 30 27 23 20 18 19 19 16 14 13 6 4 9 9 10 11 13 16 19 21 23 26 28 30 30 30 30 30 29 28 28 28 28 27 27 28 30 31 31 33 37 39 38 36 34 30 27 26 26 25 23 21 19 17 16 15
23 23 23 23 24 24 24 25 25 25 25 25 25 24 23 21 19 18 19 20 20 20 20 21 22 24 25 27 27 25 21 17 16 16 16 14 10 7 5 5 7 9 9 11 13 16 19 23 25 26 29 31 32 32 32 32 32 31 30 29 29 29 29 29 29 30 31 31 34 38 38 36 33 31 29 27 27 26 24 21 20 18 17 16 15
22 21 21 22 22 23 24 24 24 25 25 26 26 25 24 21 17 16 17 18 19 19 19 20 21 21 21 20 19 17 15 13 13 13 13 12 9 7 6 7 8 10 12 13 14 17 20 23 25 25 24 25 26 28 29 30 31 32 32 32 31 31 31 31 32 33 34 35 37 38 36 34 33 31 29 27 26 25 22 20 19 17 16 16 15
19 19 19 20 21 22 23 24 24 24 25 25 24 23 22 21 19 18 17 18 18 18 18 18 17 17 16 16 16 15 15 14 13 13 13 13 12 10 9 9 9 11 13 13 14 16 18 20 23 23 22 21 22 23 24 25 27 29 31 32 33 33 33 34 36 38 40 40 40 39 36 35 33 30 28 26 26 24 22 20 19 18 17 15 14
18 18 18 18 20 21 22 23 23 23 23 23 22 22 22 21 20 19 18 18 19 19 18 18 17 16 16 16 16 16 16 16 15 15 15 14 13 13 11 11 11 13 13 13 14 15 16 17 20 21 22 22 22 23 24 24 24 26 27 28 29 30 32 34 37 39 41 41 41 39 37 34 32 29 27 26 24 23 21 20 19 18 16 15 14
18 18 17 17 19 20 21 21 22 22 22 22 21 21 21 21 20 20 19 19 18 18 18 18 18 17 16 16 16 16 16 16 16 16 16 15 14 13 12 12 13 14 14 14 14 15 16 18 19 21 23 24 24 25 25 24 24 25 26 25 26 28 30 33 37 39 39 38 38 37 36 34 31 28 26 25 24 23 21 19 18 17 16 14 13
18 17 17 17 17 18 19 20 21 21 22 22 22 21 21 21 20 20 20 19 19 18 18 19 19 18 17 17 17 16 16 16 17 17 17 16 14 14 14 14 15 15 16 16 17 17 18 19 21 22 24 24 24 25 25 24 24 24 24 24 26 29 32 34 34 34 33 33 33 33 33 32 31 28 26 25 24 23 20 18 16 15 14 13 11
17 17 18 17 17 17 18 19 20 20 20 21 21 21 21 21 20 20 20 20 19 18 18 18 19 19 18 17 17 18 17 17 17 17 16 16 15 15 16 16 17 17 18 19 19 19 20 21 22 23 24 24 24 25 25 25 24 25 25 26 29 31 32 32 31 30 30 30 30 30 30 29 28 27 26 24 23 21 20 17 15 14 13 11 10
19 18 17 17 17 17 17 17 18 18 19 19 20 20 20 20 20 20 21 20 20 19 19 19 19 19 17 17 17 18 18 17 17 17 18 18 17 17 17 18 19 21 22 23 22 22 22 23 24 25 26 28 28 27 27 26 27 27 28 28 28 28 28 27 27 26 26 26 26 26 27 27 26 26 25 23 21 19 18 16 14 12 11 11 10
21 20 18 17 17 18 18 18 18 18 19 19 19 19 20 20 20 20 20 20 19 19 19 18 18 19 19 18 18 18 17 17 19 21 22 21 21 22 22 23 24 25 25 25 25 25 26 28 28 29 30 31 30 29 28 28 28 28 28 27 26 25 25 25 25 23 23 24 24 24 24 24 24 24 23 21 19 17 15 13 12 11 10 10 10
Wind_Direction
23 22 22 24 27 29 30 29 26 22 20 18 18 17 15 12 9 6 2 356 347 334 320 309 300 293 286 280 275 271 267 263 260 257 254 254 253 249 248 245 242 242 241 239 239 239 237 237 236 234 232 231 232 232 229 228 228 226 226 224 223 222 218 217 210 154 165 190 190 196 204 200 202 208 209 211 216 217 217 221 227 231 229 228 227
17 19 19 17 16 18 22 25 25 24 23 20 17 14 11 8 7 6 3 359 354 348 337 325 312 301 294 286 279 275 271 267 263 258 255 255 255 253 250 247 245 244 243 241 239 238 238 238 239 238 234 232 232 232 230 229 228 227 225 224 223 223 219 217 213 179 159 175 182 190 198 200 202 207 208 211 215 216 216 218 225 230 231 232 232
10 13 15 14 12 11 11 14 17 18 19 19 16 13 9 5 3 3 0 356 356 354 348 340 330 316 305 296 288 281 275 271 266 261 258 256 255 255 252 249 247 246 245 244 240 238 238 239 240 239 235 233 232 231 230 229 228 227 226 223 223 224 221 218 217 199 171 173 182 186 192 198 203 206 207 210 214 215 215 218 224 230 234 236 237
3 4 6 7 9 10 10 11 11 10 10 10 9 8 7 5 2 0 357 355 355 353 350 346 340 331 320 309 300 290 282 276 271 265 263 261 259 258 256 253 250 249 248 248 245 241 240 240 240 238 233 233 233 231 229 228 227 226 225 224 223 223 221 217 219 213 185 176 185 190 193 196 200 205 204 203 209 213 214 216 221 228 235 237 236
357 358 359 358 359 1 2 5 6 5 2 360 358 359 359 359 360 359 356 354 352 349 348 347 342 336 329 321 312 301 292 284 277 272 268 266 264 263 261 257 255 253 252 251 250 247 244 243 243 239 233 234 234 232 229 226 225 224 224 223 221 221 219 216 216 216 200 182 181 187 193 193 194 201 201 197 200 205 210 214 219 225 232 236 237
355 356 356 355 354 353 352 352 353 355 356 354 352 351 350 350 351 353 353 353 350 345 343 342 340 334 328 324 318 310 303 294 286 280 275 271 269 268 266 262 259 257 256 254 253 251 249 247 247 242 236 236 235 233 231 228 224 222 222 222 220 217 215 214 212 212 206 191 181 178 185 189 188 194 200 200 198 199 203 209 217 223 227 231 235
351 351 352 351 350 348 346 343 340 340 342 344 346 346 345 344 343 344 345 346 345 342 339 336 335 331 326 322 318 313 308 301 295 289 283 278 275 275 272 266 262 260 258 258 256 254 252 251 250 246 241 239 237 235 233 230 227 225 222 221 218 214 212 210 207 205 203 191 181 177 180 186 188 191 198 201 201 203 203 203 208 217 222 227 230
347 347 345 345 343 341 338 333 331 332 333 334 337 338 338 339 338 336 336 337 337 337 335 333 331 328 325 321 316 312 308 302 298 295 291 285 281 280 277 269 265 263 262 261 259 256 254 253 251 248 244 243 241 238 235 232 230 228 226 221 215 212 211 207 203 203 201 191 183 181 178 180 185 188 190 193 197 205 207 204 204 211 218 223 224
339 339 337 335 333 331 330 325 320 323 327 329 331 332 333 334 333 329 329 329 329 329 329 328 327 325 323 320 316 310 305 299 297 296 293 290 287 284 281 274 269 267 266 264 261 258 256 254 252 250 247 246 245 242 239 236 233 231 229 222 215 211 209 207 204 202 200 194 186 181 178 181 184 181 183 192 199 204 203 202 206 211 213 216 220
331 330 329 329 326 326 326 322 316 317 321 324 325 326 327 328 325 320 321 322 322 322 321 319 320 320 318 317 316 311 304 300 299 297 293 291 288 285 282 277 273 270 268 266 264 262 259 257 255 253 251 250 248 246 243 240 237 235 232 226 218 213 209 206 205 202 199 197 192 186 184 188 189 186 189 197 201 200 196 195 198 199 198 202 215
320 320 321 321 321 322 323 320 317 318 319 320 320 321 323 323 320 315 314 314 315 316 314 312 313 313 311 311 311 309 305 302 300 297 294 291 288 285 280 277 274 272 269 265 264 264 262 260 258 256 253 251 250 248 246 243 241 239 237 232 225 220 214 209 207 203 201 202 200 195 194 195 193 193 194 196 197 197 197 197 193 187 185 190 200
303 306 309 311 313 315 315 314 313 313 315 316 316 316 318 318 316 313 310 308 309 310 309 307 307 308 306 304 303 302 302 303 302 300 297 292 287 283 279 275 272 270 269 266 265 264 262 261 260 258 255 253 250 248 247 245 243 240 238 235 231 228 223 219 214 207 204 204 204 203 204 200 194 194 194 193 194 196 198 198 196 192 192 198 199
291 294 297 299 303 306 306 305 304 304 307 309 309 310 311 311 310 308 306 305 305 304 303 302 302 304 303 300 299 298 298 300 302 303 301 297 289 281 276 273 270 267 266 266 266 265 262 260 259 258 257 255 251 248 245 244 243 240 238 236 233 231 229 227 224 218 213 209 207 209 210 203 198 200 200 197 193 190 189 191 194 196 197 203 205
287 292 294 293 293 296 298 298 297 297 299 302 303 303 304 305 305 305 303 302 301 300 299 299 299 299 297 296 298 297 294 295 299 301 302 302 297 284 273 270 268 265 264 264 264 264 263 261 260 259 258 254 250 247 245 242 241 238 235 233 232 231 229 228 227 225 221 216 214 216 215 209 208 209 205 200 195 191 190 191 193 195 196 199 198
286 287 292 294 293 293 294 293 291 290 292 295 297 298 299 300 300 301 300 298 295 294 295 296 295 295 293 292 294 293 291 293 298 301 300 301 301 291 276 270 266 263 262 262 261 262 262 261 260 261 259 255 251 249 246 241 237 234 231 230 230 230 228 227 226 225 224 222 220 220 218 215 214 212 205 201 200 198 197 196 193 191 188 184 178
289 287 292 295 295 294 292 291 289 285 284 288 292 293 295 296 296 297 297 292 287 288 290 290 289 290 290 290 289 289 289 290 294 297 297 298 298 291 280 273 267 263 261 260 259 259 259 259 259 259 259 257 254 251 247 242 235 230 229 229 229 229 228 228 227 225 224 225 223 221 220 218 215 212 207 202 200 198 194 190 187 184 179 176 177
291 292 295 296 297 295 292 292 292 285 280 283 287 288 291 292 292 294 295 290 284 283 285 286 287 287 287 287 286 285 287 287 286 287 289 292 291 286 280 275 270 266 264 261 260 258 257 257 256 257 258 257 255 251 246 240 233 228 228 228 227 229 230 229 228 226 226 226 225 222 220 217 213 211 209 205 201 196 187 181 182 181 179 179 187
296 297 298 297 296 295 293 292 293 288 283 284 287 288 288 287 287 290 290 286 282 280 281 285 286 285 285 285 284 284 284 285 283 279 281 284 284 280 276 273 269 269 268 266 263 260 258 256 255 254 255 255 254 250 243 237 231 227 226 226 225 227 229 227 223 223 225 225 224 221 219 216 212 208 206 205 203 200 194 189 186 182 183 189 187
304 303 301 298 296 295 294 295 294 290 285 286 288 289 288 285 284 285 283 279 277 277 278 280 282 283 283 282 283 283 283 282 281 277 275 278 278 274 270 267 265 267 267 267 265 262 260 258 255 252 253 253 252 248 241 234 229 226 226 223 223 227 228 223 215 213 215 215 215 214 213 211 207 202 201 201 202 202 201 196 190 185 186 188 181
307 304 301 298 295 294 295 295 294 292 289 287 288 289 288 284 282 282 279 275 274 274 275 277 279 280 280 280 282 282 281 281 280 277 272 270 270 269 266 262 261 263 264 264 264 262 261 259 256 253 252 250 248 245 239 232 227 226 225 222 224 229 227 219 211 211 210 208 207 206 206 205 202 199 196 195 197 199 199 198 196 193 190 186 182
306 303 299 297 295 295 296 296 295 293 291 289 288 287 284 281 280 280 279 276 274 272 273 276 277 276 277 280 281 280 279 278 278 277 273 265 262 263 261 257 258 260 261 260 260 260 260 258 256 254 251 247 245 241 237 233 229 227 226 225 229 231 224 214 212 211 209 207 206 204 202 201 199 197 194 191 192 193 193 195 197 197 195 191 187
306 304 301 299 298 298 299 298 296 294 293 291 289 286 283 281 280 280 278 276 274 271 272 275 274 272 274 278 279 279 278 276 275 275 273 265 258 256 256 258 259 259 258 257 257 257 257 257 256 254 249 246 243 237 230 227 227 227 229 230 231 228 221 214 211 207 206 206 204 201 200 199 197 195 192 189 188 188 187 189 192 195 198 198 195
306 304 303 302 301 302 302 300 299 297 295 293 290 287 286 285 282 280 279 277 275 272 272 272 270 269 270 272 273 275 277 275 272 271 271 267 260 253 253 258 260 256 253 254 254 255 257 257 256 254 250 243 239 233 226 221 223 227 230 230 228 224 218 213 207 204 203 203 201 200 201 200 197 193 188 184 182 180 181 183 187 191 194 195 197
306 303 302 302 301 302 303 301 301 299 297 296 292 288 287 286 282 280 277 275 272 270 269 268 266 266 268 268 267 270 273 273 270 269 269 269 264 255 251 254 257 254 251 251 253 254 255 255 254 253 249 241 236 233 227 223 225 228 227 224 222 218 213 208 205 202 200 199 199 201 200 198 193 188 184 178 174 173 176 179 183 187 188 188 191
307 303 303 302 300 301 302 300 300 299 298 296 292 288 287 286 283 279 276 273 270 268 268 267 264 264 265 266 265 266 269 270 269 267 267 268 266 259 251 249 251 251 249 250 253 253 252 253 253 252 247 240 236 234 229 226 226 227 225 221 216 212 209 206 203 200 198 198 200 200 197 194 190 185 180 175 171 171 173 173 174 178 180 183 186
305 302 302 301 300 301 301 299 298 299 297 294 289 287 287 287 284 281 279 275 272 270 270 269 268 267 268 268 267 269 271 270 268 267 267 266 266 263 255 247 248 251 252 252 253 253 252 251 251 248 242 235 230 229 229 228 227 227 226 222 216 210 207 204 200 198 199 198 197 196 194 191 186 181 177 174 174 174 173 169 167 170 176 181 181
301 299 300 300 299 298 297 295 295 296 294 291 288 287 287 286 284 283 282 279 277 275 273 272 271 271 271 271 271 273 273 271 268 268 267 265 265 264 259 252 249 250 251 250 251 252 251 250 248 243 236 230 227 227 228 228 226 225 226 224 218 211 206 202 200 200 200 197 194 192 189 183 179 176 175 176 175 175 173 170 166 167 175 181 179
297 297 299 297 295 295 293 293 293 293 291 289 288 287 286 285 282 280 280 279 279 278 276 274 274 275 276 276 275 275 273 269 266 266 266 265 264 264 262 257 252 247 246 248 249 250 250 248 245 237 228 223 222 223 224 224 222 220 221 222 219 213 205 200 199 201 201 197 193 188 181 177 176 175 174 174 174 173 174 173 171 170 175 178 175
297 297 297 295 294 295 294 292 291 290 290 289 286 283 283 282 281 280 278 275 274 275 275 274 273 274 275 274 274 276 275 272 271 271 270 268 266 264 263 262 257 252 249 249 249 248 246 242 234 225 216 213 212 214 216 216 216 216 217 219 217 209 199 194 196 199 198 193 188 183 177 175 174 173 171 170 171 172 173 173 173 173 175 175 174
298 297 297 296 295 295 293 291 290 289 289 289 287 285 283 280 280 281 281 279 277 276 276 275 275 274 273 270 268 269 271 272 275 276 275 274 272 270 268 267 265 262 259 254 250 246 239 230 222 215 210 207 207 208 207 205 206 209 212 214 212 203 194 192 193 195 193 189 184 178 173 170 169 168 168 166 165 168 172 174 174 173 173 174 173
299 299 298 296 294 293 291 290 290 288 287 286 287 288 288 285 281 280 282 283 283 281 279 279 279 278 276 275 272 271 271 272 273 273 272 272 271 269 269 268 268 267 263 258 252 245 235 222 213 212 212 207 206 207 204 201 202 203 205 209 208 199 192 191 191 188 185 182 177 173 171 169 168 168 168 165 162 164 169 172 173 173 173 174 173
298 297 296 293 292 292 290 289 289 287 286 286 286 287 290 290 287 284 283 284 286 285 284 284 283 281 280 280 280 281 282 281 279 276 275 274 272 271 269 267 265 263 261 256 249 241 236 226 211 211 212 210 209 209 203 199 201 201 199 202 203 197 191 189 186 182 178 176 173 172 173 173 172 171 171 169 166 165 166 169 170 171 170 171 173
295 294 293 291 291 290 288 287 287 286 285 285 286 287 288 289 290 291 291 289 288 287 286 285 285 284 284 283 283 285 286 286 283 279 277 276 275 274 273 271 266 260 256 252 245 238 235 230 220 215 213 211 211 209 203 200 200 198 197 198 197 192 187 183 179 177 176 175 175 175 176 176 174 172 172 171 168 165 165 166 168 169 168 167 168
291 290 290 290 289 289 287 285 285 284 284 285 286 286 286 286 288 291 294 294 292 289 288 286 285 285 285 285 284 284 285 286 284 281 277 274 271 269 269 272 271 263 253 246 239 235 232 226 221 217 213 212 212 207 202 201 197 193 192 191 185 179 175 174 173 173 173 174 176 177 177 177 174 171 169 168 166 163 162 165 166 165 167 168 166
291 288 289 289 288 287 286 285 284 284 285 285 285 285 285 285 286 287 288 290 290 290 290 289 287 287 288 288 286 286 286 287 285 282 279 276 271 266 262 264 268 264 251 240 235 235 231 223 219 217 213 212 210 205 201 198 193 186 181 174 168 166 166 166 169 171 172 174 176 177 176 176 175 172 168 167 166 163 162 165 166 164 164 166 164
293 292 291 290 288 287 287 286 284 284 284 284 284 284 284 284 284 284 283 284 285 287 289 290 290 291 292 290 289 289 289 289 288 286 283 279 273 263 252 251 258 260 249 235 230 234 233 225 219 216 212 209 207 203 198 193 185 179 173 167 165 165 166 167 169 171 173 174 175 175 174 173 172 170 167 165 166 165 163 163 165 165 164 164 164
296 294 292 291 290 289 288 287 284 283 284 284 284 284 284 283 283 283 283 283 284 286 288 291 293 295 294 293 292 292 292 293 293 290 287 283 275 259 242 239 249 256 250 231 221 225 233 229 217 211 208 205 201 195 190 183 176 172 171 170 169 168 169 171 172 172 171 171 171 171 170 169 169 169 165 162 162 163 162 162 163 165 166 165 163
297 294 292 292 293 292 290 290 288 287 287 287 286 284 284 283 282 282 282 282 283 285 287 290 293 294 293 294 296 297 297 300 301 297 294 295 289 268 244 237 242 248 243 225 214 219 228 223 211 205 202 199 193 185 179 174 170 169 169 167 167 168 169 170 171 170 168 167 167 167 167 167 168 168 165 162 160 161 163 164 163 162 162 162 162
298 296 295 296 297 296 293 292 291 289 288 286 285 283 282 281 282 281 280 280 282 283 285 288 289 288 288 292 295 297 297 299 301 299 299 305 308 299 277 257 246 241 230 215 211 220 222 211 201 198 194 188 181 175 170 167 166 167 165 163 162 165 166 166 165 164 164 163 164 165 165 164 165 166 165 163 162 162 164 164 162 160 159 161 163
299 298 298 300 300 298 297 295 293 290 287 285 283 283 282 280 280 279 279 280 281 281 283 284 284 285 286 288 289 291 292 290 288 291 295 297 300 302 296 276 243 221 212 204 207 218 213 195 185 182 179 174 168 163 163 165 165 165 165 165 165 166 167 166 164 163 163 162 162 162 161 160 161 162 163 163 164 164 163 162 161 160 160 160 159
300 299 300 302 302 301 300 298 295 293 290 287 284 282 280 280 279 277 277 277 277 279 281 280 280 283 285 286 287 291 294 292 290 294 299 298 294 296 297 283 220 183 187 193 192 189 176 166 164 162 159 157 157 158 161 164 165 165 165 166 165 164 164 164 164 162 161 159 159 160 160 161 161 161 160 161 162 163 162 161 159 158 158 158 158
304 303 303 304 306 305 304 302 299 298 296 293 289 283 279 278 278 278 278 277 277 278 279 279 280 283 285 287 290 294 296 296 297 302 306 303 298 299 308 316 125 139 154 165 165 161 154 150 151 152 153 157 161 164 165 165 164 164 164 163 162 160 160 161 162 162 160 158 158 160 160 161 161 160 158 158 160 160 159 159 158 157 157 158 159
307 305 305 307 308 308 306 305 304 304 303 301 299 296 291 285 279 275 276 277 276 277 277 277 279 283 284 288 295 301 305 308 313 318 321 321 322 329 357 54 99 122 138 150 160 165 161 156 155 158 161 166 170 171 169 168 167 165 163 161 161 161 160 159 160 160 158 157 157 159 159 158 158 157 156 158 160 159 157 157 157 157 159 161 162
308 306 308 311 311 310 310 311 311 311 309 308 307 307 307 304 298 291 288 286 284 284 283 283 286 291 295 303 313 321 326 330 335 338 342 349 359 13 37 70 101 124 137 147 157 163 161 157 156 157 160 164 167 169 168 168 168 167 164 161 161 161 161 161 162 162 161 157 155 156 158 157 157 156 156 158 158 157 156 157 158 158 160 162 164
310 309 312 315 315 315 316 316 315 316 316 316 315 315 318 320 320 319 318 316 314 312 311 312 315 319 325 332 339 343 343 346 353 0 8 16 22 29 44 64 86 105 117 128 140 149 150 150 150 151 151 154 158 161 160 161 164 166 166 165 165 166 167 167 166 165 164 160 157 157 158 157 156 156 155 156 157 158 159 160 161 160 160 163 168
310 312 316 319 320 320 319 319 319 319 320 321 322 322 323 325 327 329 331 332 332 331 331 333 337 341 344 346 349 352 355 356 359 9 23 31 32 35 46 63 82 95 105 116 128 135 136 138 141 141 139 140 144 146 148 151 156 161 164 166 166 167 168 167 165 164 163 162 160 160 159 157 156 156 156 157 159 160 160 161 164 164 165 167 172
314 316 319 321 322 323 322 322 323 323 323 324 326 326 327 328 330 332 334 337 339 340 341 341 343 345 348 353 355 357 0 2 5 12 25 36 42 47 55 66 79 91 98 107 115 120 122 126 131 132 131 132 136 139 143 148 155 160 165 168 169 168 167 164 163 162 163 163 162 161 160 158 157 158 159 160 161 161 161 162 165 168 169 171 174
321 321 322 323 324 325 325 326 328 328 328 328 328 328 331 333 334 335 337 340 343 346 347 348 349 349 350 354 358 1 7 12 15 19 28 38 47 58 69 76 83 89 94 100 106 110 114 120 125 128 130 133 136 140 145 152 157 161 165 168 168 166 162 159 158 160 161 163 163 162 161 161 160 161 162 162 163 165 165 165 166 172 174 175 178
332 327 325 325 326 327 328 329 329 328 328 329 329 331 334 337 338 340 342 342 344 349 351 352 352 352 351 353 357 3 9 13 15 22 35 45 52 62 75 87 93 95 97 100 105 110 115 119 123 126 128 131 134 138 143 148 151 152 153 153 154 154 154 154 156 159 161 162 164 164 163 163 162 162 163 164 165 167 169 168 169 173 174 174 181
350 341 333 328 328 329 330 331 333 332 332 333 333 335 338 339 340 344 345 345 346 350 354 356 357 357 355 355 357 1 7 15 23 35 46 55 60 67 77 88 95 97 99 101 104 107 112 115 118 119 121 124 127 130 132 135 136 137 138 139 141 145 148 151 153 156 158 160 163 165 165 164 163 163 165 166 166 167 169 170 170 172 173 178 189
2 357 348 339 336 334 334 336 339 340 339 340 339 340 341 343 344 346 348 349 350 352 355 358 1 3 3 3 5 9 18 29 41 50 56 61 66 72 78 85 91 93 95 97 99 101 106 110 113 116 118 120 122 123 124 126 128 130 131 134 137 141 144 147 149 152 156 159 161 163 165 166 166 165 166 168 169 170 172 173 176 178 181 187 197
Height
777 776 774 773 771 769 768 766 765 764 762 760 758 757 756 755 754 753 752 752 751 750 749 748 747 746 745 744 743 743 742 742 742 742 743 743 743 743 743 744 744 743 744 745 746 747 748 748 749 750 753 756 756 757 758 760 762 763 764 766 767 769 771 773 774 776 778 778 779 782 784 786 788 789 791 792 794 796 798 799 799 800 801 802 802
777 776 774 772 771 769 768 767 765 764 762 760 758 758 757 757 756 754 753 752 751 750 749 748 746 745 743 742 741 741 740 739 739 740 739 739 740 740 741 741 741 741 741 740 741 743 744 745 745 747 750 751 752 753 754 756 757 758 760 761 763 765 767 770 771 773 775 776 777 779 781 783 784 785 787 788 789 791 794 795 796 797 798 799 800
777 775 774 772 771 770 768 766 764 763 761 760 759 759 758 758 757 755 754 753 751 750 748 746 745 743 742 741 739 739 738 737 737 737 737 737 737 737 737 738 737 738 737 737 737 739 739 739 740 743 747 747 746 748 749 750 752 753 754 757 758 760 763 766 768 769 771 773 774 775 778 780 782 782 784 785 787 788 790 792 793 794 795 796 797
776 775 773 772 771 769 768 766 764 762 761 761 760 760 759 758 757 756 755 753 751 750 748 746 744 742 740 739 738 737 736 736 735 735 735 735 734 734 734 734 734 734 734 734 735 736 735 734 734 738 742 743 741 742 742 743 745 747 749 752 753 756 759 761 764 766 767 769 771 773 774 777 780 781 782 783 784 785 787 788 790 792 793 794 795
776 774 773 771 769 768 767 766 765 764 763 762 761 761 760 758 757 756 754 753 751 749 748 746 744 742 740 738 737 736 735 734 734 733 733 732 732 731 731 731 730 730 730 730 731 732 731 729 730 734 737 736 735 735 736 737 739 741 744 746 748 751 754 757 760 762 763 764 767 770 773 776 778 780 780 780 781 783 784 786 787 789 790 791 792
776 774 772 771 769 768 767 766 765 764 764 763 762 761 759 758 756 755 753 752 750 749 748 746 744 742 740 738 736 734 733 733 732 731 731 730 729 729 728 728 727 726 726 726 726 727 727 725 726 730 731 728 727 729 731 733 734 735 737 739 742 746 749 751 754 758 759 760 762 766 769 772 775 777 778 778 778 779 781 784 785 786 787 788 789
776 774 773 771 770 768 767 766 765 764 763 762 761 760 759 757 756 754 753 751 749 748 747 745 743 741 739 737 735 733 732 731 730 729 728 727 726 725 725 724 723 723 722 721 721 721 721 721 722 724 724 722 721 724 727 730 730 730 730 733 737 741 743 746 749 752 755 757 758 761 764 767 771 773 775 777 779 778 779 780 781 783 784 785 787
775 774 773 771 771 769 768 767 766 764 763 761 760 759 757 756 754 753 752 750 748 746 745 743 741 739 738 736 734 732 730 729 728 727 726 725 724 722 721 721 719 718 717 717 716 716 715 715 716 718 718 717 718 721 723 725 726 725 726 728 732 734 737 740 744 747 750 752 754 756 759 762 765 768 772 775 776 776 775 775 777 778 780 782 784
775 774 773 772 771 769 768 767 765 764 763 761 759 757 755 753 751 750 749 747 746 744 742 741 739 737 735 734 732 730 728 727 725 724 723 722 721 719 718 717 716 714 713 712 711 711 710 710 710 711 713 714 715 717 718 719 721 721 721 724 727 728 730 734 737 741 744 747 750 752 755 757 758 761 765 767 769 771 772 773 774 776 778 780 782
775 774 772 771 770 768 767 766 764 762 761 759 757 755 754 752 750 748 746 744 743 741 740 738 736 734 732 731 729 728 726 724 723 721 720 719 718 716 714 713 712 710 709 707 706 705 705 705 705 706 708 709 710 712 713 715 716 716 717 720 722 722 724 727 729 732 737 741 743 746 749 750 751 752 755 758 763 766 769 770 771 774 777 779 780
775 774 772 770 768 767 765 763 762 760 758 756 755 753 752 750 748 747 744 742 740 738 736 735 733 732 730 728 726 725 723 722 720 718 717 715 714 713 711 710 708 706 705 703 701 700 700 700 700 701 702 703 704 706 708 710 710 711 713 716 717 718 719 720 722 725 729 732 735 738 740 741 743 745 748 753 758 762 764 765 767 770 772 774 776
773 772 770 769 767 765 764 762 760 758 756 754 753 751 749 748 747 745 742 740 738 735 733 731 729 727 726 724 722 721 719 718 716 715 713 711 710 709 707 706 704 702 701 699 697 696 696 696 695 696 696 697 698 701 702 703 704 706 708 711 713 714 714 714 716 718 722 725 728 730 731 733 737 739 742 746 751 756 759 761 762 764 766 767 770
771 769 767 766 764 763 762 760 758 756 754 753 751 749 747 745 744 742 740 738 735 733 730 728 725 723 721 719 717 716 714 713 712 711 709 707 706 704 702 701 700 698 697 695 694 692 691 691 690 690 691 692 694 695 695 696 698 701 703 706 707 708 709 711 712 713 715 717 720 721 722 727 731 731 733 737 742 748 753 756 757 759 761 762 764
768 766 765 763 761 760 759 757 755 753 751 750 748 746 745 743 741 739 737 735 732 729 727 724 722 720 718 715 713 711 709 708 707 706 704 702 701 700 698 696 694 694 692 691 689 688 687 687 686 684 685 687 689 689 690 691 693 695 698 699 699 700 703 706 708 710 711 711 711 713 716 720 723 724 727 730 734 738 742 746 750 753 756 759 761
764 762 761 759 757 757 755 753 752 750 747 747 745 743 742 740 738 736 734 732 729 726 723 720 717 715 713 712 709 706 703 702 701 699 698 697 695 695 693 691 689 688 686 686 685 683 683 682 681 679 680 682 683 684 685 687 689 691 692 691 691 693 696 698 700 704 706 707 707 709 713 716 718 721 724 726 729 732 736 739 744 748 752 756 759
760 758 757 755 754 753 751 750 748 746 744 743 741 739 738 736 734 733 731 728 725 721 719 717 714 711 708 707 705 701 697 697 696 694 692 692 691 690 688 686 685 682 680 680 679 678 678 677 676 675 675 676 677 678 680 683 685 686 686 685 686 688 689 690 693 698 701 702 705 707 710 712 715 717 719 722 726 730 734 738 742 746 750 753 756
758 756 754 752 751 750 749 747 745 743 741 739 737 735 734 732 730 729 727 724 720 717 714 711 709 707 704 701 699 695 691 690 690 689 687 686 686 685 683 681 679 677 674 673 673 672 672 671 671 670 669 669 670 672 676 679 680 680 680 681 683 684 683 685 690 694 696 699 702 706 707 709 711 713 715 718 720 724 728 733 737 740 745 749 751
756 754 752 750 749 747 746 744 742 739 737 735 733 731 729 728 725 724 723 719 715 712 709 706 703 701 698 695 693 690 685 682 683 683 681 681 681 679 678 676 673 671 668 667 667 666 664 664 665 665 663 664 666 668 671 673 675 675 674 676 678 678 677 680 686 691 694 697 700 704 706 707 708 709 711 713 715 717 719 723 728 733 738 742 745
753 751 749 747 745 743 742 741 738 736 733 731 730 728 726 723 720 719 717 714 711 707 703 700 697 694 692 689 687 685 681 676 675 675 674 674 674 674 672 671 668 666 663 662 660 659 657 657 658 658 658 659 662 664 665 667 670 669 669 672 672 669 669 676 683 688 691 694 697 701 703 705 706 707 708 709 710 711 713 716 720 725 731 736 740
751 749 747 744 742 740 739 737 735 733 730 727 725 723 721 718 715 713 711 708 705 702 698 694 690 686 685 683 680 678 676 671 668 667 667 667 667 667 667 665 662 660 659 657 655 653 651 651 651 651 652 654 656 658 659 661 663 664 666 666 662 659 665 675 681 684 687 690 693 696 699 701 702 703 704 705 706 708 711 713 716 719 725 731 735
748 746 743 741 739 736 735 734 731 729 726 723 720 717 715 713 710 707 705 702 699 695 691 689 685 679 676 675 673 671 668 665 661 659 659 659 659 660 660 658 656 654 653 652 651 648 646 646 645 646 647 648 650 652 653 654 657 658 659 656 654 657 665 671 674 678 683 686 689 692 694 696 697 698 699 701 702 703 707 709 712 716 721 726 729
746 743 740 737 735 733 731 730 727 724 721 719 715 711 708 706 704 701 699 695 691 687 683 681 678 672 668 666 664 661 660 658 655 652 650 650 651 651 651 650 649 648 647 645 644 642 641 640 640 640 641 642 644 645 646 648 650 651 650 650 652 656 661 664 668 673 677 680 683 686 688 690 691 692 695 696 697 700 703 706 709 713 718 722 725
743 740 736 733 730 728 725 723 721 719 716 714 711 706 702 700 698 696 693 689 684 680 676 673 671 666 660 656 653 651 650 649 646 644 641 641 641 641 641 641 641 641 640 638 636 635 634 634 634 635 635 636 637 639 640 641 642 642 643 645 649 651 655 660 664 667 670 673 677 679 681 683 685 687 689 691 693 696 700 704 707 711 715 720 723
740 736 733 729 726 723 720 717 716 713 711 709 706 701 697 695 692 689 687 683 679 673 668 666 663 658 653 648 643 640 640 639 637 635 633 632 632 632 631 631 632 632 632 630 628 628 627 626 626 628 628 629 630 632 633 634 635 636 638 642 645 646 650 655 658 660 664 667 669 671 673 677 680 683 684 686 689 694 698 701 705 708 712 717 721
736 732 729 726 722 719 715 713 711 708 706 704 701 696 692 689 686 683 681 677 673 668 663 660 656 651 646 641 635 631 630 629 628 627 625 624 623 623 622 622 622 623 623 622 621 620 620 620 620 621 622 623 625 627 628 628 629 631 634 638 640 641 644 647 651 655 658 659 661 665 668 673 677 680 682 685 689 692 696 699 703 707 710 715 718
732 728 725 722 718 716 712 708 705 703 701 700 697 693 689 686 682 679 676 673 669 664 659 655 651 646 641 636 630 626 624 622 620 618 618 617 615 615 615 614 615 616 616 615 614 613 613 614 615 615 616 617 619 621 622 622 624 627 630 632 633 634 636 640 644 648 650 652 656 661 665 669 674 678 681 684 687 689 692 696 700 704 707 711 715
729 725 722 719 715 712 709 704 701 698 696 694 692 689 686 683 679 675 673 670 665 661 656 652 647 643 637 632 628 623 619 617 614 612 611 610 608 608 608 608 608 609 609 608 607 606 607 608 609 609 610 611 613 615 616 617 619 622 625 626 627 628 630 634 638 642 645 648 653 657 661 666 669 673 676 680 684 686 689 692 696 700 704 707 711
727 722 719 716 712 709 706 702 699 695 692 689 687 684 681 679 675 672 670 668 663 658 654 649 645 642 637 631 626 621 616 612 609 607 606 605 603 602 602 602 602 601 601 601 601 600 601 603 604 604 605 606 607 609 611 612 614 616 619 621 622 624 626 630 635 638 642 646 650 654 658 661 664 667 671 675 680 683 686 690 692 696 701 705 708
724 720 716 713 709 706 703 700 696 692 688 684 682 679 676 675 671 666 665 663 660 655 651 646 643 640 636 630 626 621 613 607 606 605 604 601 599 598 597 597 596 596 596 596 596 596 597 597 598 598 599 599 601 603 604 606 608 611 614 616 618 620 622 626 630 634 639 643 648 651 654 657 661 665 668 672 677 680 683 686 690 693 698 702 705
720 717 713 710 707 703 700 697 693 690 685 680 676 672 670 669 667 662 658 656 654 651 646 640 638 636 631 625 622 618 610 605 604 604 602 599 597 595 593 592 592 592 592 592 592 592 591 591 591 591 592 593 594 595 597 599 602 605 609 612 614 616 617 621 625 630 635 640 644 647 651 655 659 663 667 670 674 678 681 684 687 691 695 699 702
717 713 711 707 704 701 698 693 689 686 682 677 673 667 663 661 660 657 653 649 646 644 640 635 632 629 624 618 614 611 605 601 600 599 597 596 595 592 591 589 588 588 588 589 588 587 586 585 584 585 586 587 587 588 590 593 596 600 604 608 611 612 614 617 621 626 632 637 641 645 649 653 657 661 665 669 673 676 680 682 685 689 692 695 698
715 711 708 704 701 698 694 690 686 682 677 674 670 665 660 654 651 649 648 645 641 637 634 630 625 622 619 613 608 604 600 597 595 593 592 591 589 587 586 585 584 584 584 584 583 581 580 579 578 579 581 582 582 584 586 588 591 595 599 603 607 609 611 614 618 623 628 633 638 643 647 650 654 657 661 665 670 673 677 680 683 686 689 693 696
713 708 704 701 697 694 690 686 682 678 674 670 666 662 658 653 646 642 640 638 636 632 628 625 621 616 613 609 604 599 596 594 591 589 587 586 584 582 581 579 578 578 578 577 576 575 574 574 574 574 576 577 579 581 583 585 587 590 594 598 602 606 609 613 616 621 625 630 636 640 644 648 651 654 658 662 665 669 673 677 681 684 687 691 694
709 705 701 697 694 690 686 682 678 674 670 667 663 659 655 651 646 641 636 632 629 625 622 619 616 612 608 604 600 596 592 589 586 584 582 581 579 578 577 575 573 571 571 570 569 568 568 568 569 571 573 575 577 579 580 582 584 587 590 594 599 603 607 611 615 619 624 630 635 639 643 646 649 652 656 660 663 666 670 675 679 682 685 688 692
704 701 697 694 690 686 682 678 674 670 667 663 660 656 652 648 644 640 635 630 625 620 616 612 609 607 603 599 595 591 588 585 581 578 576 574 572 573 573 570 566 564 562 562 561 562 562 563 565 567 569 572 573 575 577 579 581 584 587 591 596 601 605 609 614 618 623 628 633 637 640 644 647 650 653 657 661 664 668 672 676 679 683 687 690
700 697 693 690 687 683 679 675 671 667 663 660 656 653 649 645 641 637 633 629 623 617 612 608 604 601 598 594 591 587 583 580 577 573 570 568 565 565 565 562 560 558 556 555 555 557 557 558 560 563 566 568 570 572 574 576 579 582 585 589 593 598 603 607 612 616 621 625 630 634 638 641 645 648 651 655 659 662 666 670 673 677 681 685 688
697 694 690 686 683 680 676 671 667 664 660 656 653 649 645 641 638 634 630 625 621 615 610 605 601 597 592 588 586 583 579 575 572 568 564 559 556 555 555 554 554 553 551 550 551 553 554 555 557 559 563 566 568 570 572 575 578 581 584 588 591 596 600 604 609 613 617 622 627 631 635 639 642 645 648 653 658 662 666 669 672 676 679 682 685
694 691 687 684 680 677 673 668 664 660 656 653 649 646 642 638 634 630 626 622 618 613 608 604 600 596 589 584 581 580 576 572 567 563 558 553 549 548 548 548 548 548 547 546 547 549 550 552 554 556 559 562 565 568 571 574 577 580 583 587 591 596 600 605 608 612 616 620 625 630 633 637 640 643 647 652 657 662 666 669 671 675 678 681 683
691 687 684 681 678 674 670 665 661 657 653 649 645 642 638 634 631 627 623 619 615 611 606 602 598 594 589 583 579 576 574 570 565 561 556 551 548 546 545 543 543 543 542 543 544 546 548 550 552 554 557 560 563 566 569 573 577 580 583 587 591 596 601 604 608 612 616 620 624 628 632 636 640 644 648 652 657 661 665 668 670 673 676 679 682
689 685 681 677 674 671 666 662 658 654 650 646 642 638 635 631 627 623 619 616 612 608 604 600 595 590 587 583 579 575 572 568 563 560 556 551 548 546 543 540 538 538 539 541 542 544 546 547 549 552 556 559 562 565 568 572 576 579 583 586 590 594 599 602 606 610 614 618 622 627 631 635 640 645 649 654 657 661 664 666 669 672 675 678 682
687 683 678 675 672 668 664 660 656 651 647 643 639 635 631 627 623 620 616 613 609 605 601 597 592 587 584 580 577 574 571 566 561 558 554 551 548 546 542 538 536 536 538 540 541 544 545 547 549 552 555 558 562 565 568 572 575 578 582 586 590 594 598 602 606 610 613 617 622 626 630 635 639 644 649 653 657 660 663 666 668 671 674 678 681
685 681 676 673 669 666 662 658 653 649 645 641 636 632 628 624 620 617 613 609 606 603 598 594 589 585 581 577 574 571 568 564 560 557 554 550 547 545 542 539 537 537 538 540 541 544 545 547 550 552 554 558 561 563 566 570 573 577 582 586 590 594 598 602 606 610 613 617 621 625 630 635 639 643 648 652 655 659 662 665 668 671 674 677 680
683 679 675 672 668 664 661 656 652 648 643 639 634 630 626 621 617 613 610 606 603 600 596 591 587 582 578 575 572 569 566 563 560 557 554 551 548 545 544 542 540 539 540 541 542 544 545 547 550 552 554 556 559 561 564 567 571 576 581 585 590 594 598 602 606 610 614 618 622 625 630 634 638 642 646 650 654 657 661 665 668 671 674 677 679
681 677 674 670 667 663 659 655 651 647 642 638 633 629 624 620 616 611 608 604 601 597 594 589 585 581 577 574 571 569 566 563 561 558 555 553 550 548 546 545 543 543 542 543 544 546 547 548 551 553 556 558 560 562 565 568 571 575 580 584 589 593 597 600 604 608 612 616 621 626 630 633 637 641 644 648 653 657 661 664 668 671 673 676 678
679 676 673 669 666 662 658 654 651 647 642 638 633 628 624 620 616 612 609 605 601 597 594 590 586 583 579 576 573 571 568 566 563 560 558 556 554 552 550 549 548 547 546 547 548 549 550 551 553 555 557 560 563 565 568 572 575 578 581 584 588 591 595 598 602 606 610 614 619 624 629 633 637 641 644 648 652 656 660 664 667 670 673 675 677
679 675 672 669 665 662 658 654 651 647 643 639 634 629 625 621 617 613 610 606 602 599 595 592 588 585 581 579 576 573 571 569 566 563 561 559 557 556 554 553 551 550 550 550 551 552 553 554 556 557 560 562 565 569 572 575 578 581 584 587 590 593 596 599 602 606 610 613 618 623 628 632 637 641 644 648 652 656 660 663 666 669 672 674 676
678 675 672 668 665 662 658 655 651 647 643 640 636 631 627 623 619 615 612 608 604 601 597 594 591 588 584 582 579 576 574 572 570 568 565 563 561 560 558 557 556 555 554 554 555 556 557 559 560 561 563 566 568 571 574 577 580 583 586 589 592 595 598 602 604 608 611 615 619 623 627 632 637 641 644 648 652 656 659 663 666 668 670 672 674
677 674 672 668 665 662 659 655 652 648 644 641 637 633 629 625 621 618 614 610 606 603 599 597 594 591 588 585 582 580 578 576 573 572 569 567 565 564 563 561 561 560 559 559 560 560 562 563 565 566 568 570 572 574 577 580 583 586 588 591 594 597 600 604 608 611 615 618 621 625 628 632 636 641 644 648 652 655 659 662 665 667 669 670 672
677 675 672 668 666 663 660 656 653 650 646 643 639 635 631 628 624 620 617 613 609 606 603 599 597 594 592 589 586 583 581 579 577 575 573 571 570 569 567 565 565 564 564 564 565 565 567 568 569 571 573 574 576 578 580 583 586 588 591 594 597 600 603 607 611 614 617 621 624 627 630 634 638 641 645 648 651 655 658 661 663 665 667 669 670
678 675 672 669 666 664 661 658 655 651 648 645 641 637 634 630 627 623 620 616 613 609 606 603 600 598 595 593 590 588 585 583 581 579 577 576 574 573 572 570 569 568 568 569 569 570 572 573 574 576 577 579 581 583 585 588 591 593 595 598 602 605 608 611 614 617 620 623 626 629 632 635 639 642 645 649 652 654 657 660 662 664 666 667 669
678 675 673 670 667 665 661 658 655 653 650 646 643 640 637 633 630 627 623 620 617 613 610 607 604 601 599 597 595 593 590 588 586 584 582 581 580 578 577 576 575 574 574 575 575 576 577 578 580 581 583 585 587 589 591 593 596 598 600 603 606 609 612 615 617 620 623 626 628 632 635 637 640 643 646 649 652 654 657 659 661 662 664 666 668